Hourly Data Report for October 15, 2019

All times are specified in Local Standard Time (LST). Add 1 hour to adjust for Daylight Saving Time where and when it is observed.

CORAL HARBOUR A
NUNAVUT
Current Station Operator: NAVCAN

64°11'36.000" N
83°21'34.000" W
62.20 m
2301002
71915
YZS

Download Data

Hourly Data (October 2019)
Hourly Data Report for October 15, 2019
TIME Temp Definition
°C
Dew Point Definition
°C
Rel Hum Definition
%
Wind Dir Definition
10's deg

Wind Spd Definition
km/h
Visibility Definition
km
Stn Press Definition
kPa
Hmdx Definition


Wind Chill Definition


Weather Definition


00:00 -2.7 -4.9 85 36 2 24.1 100.83   -3 LegendNANA
01:00 -2.2 -4.4 85 12 3 24.1 100.83   -3 Mostly Cloudy
02:00 -2.9 -4.9 86 36 3 24.1 100.83   -4 LegendNANA
03:00 -1.6 -3.9 84 6 10 24.1 100.81   -5 LegendNANA
04:00 -1.7 -3.8 85 10 12 24.1 100.84   -6 Mostly Cloudy
05:00 -1.5 -3.7 85 8 10 24.1 100.81   -5 LegendNANA
06:00 -0.8 -3.2 84 6 31 32.2 100.76   -8 Snow
07:00 -0.2 -2.8 82 6 39 24.1 100.74   -8 Snow
08:00 -0.2 -2.7 83 5 39 24.1 100.77   -8 LegendNANA
09:00 -0.2 -2.5 84 6 35 24.1 100.79   -7 LegendNANA
10:00 0.0 -2.4 84 4 28 24.1 100.84   -6 Cloudy
11:00 0.1 -2.5 83 2 21 24.1 100.89     LegendNANA
12:00 0.2 -2.7 81 1 19 24.1 100.91     LegendNANA
13:00 -0.2 -3.1 81 35 18 24.1 100.92   -5 Cloudy
14:00 -0.4 -3.4 81 2 31 24.1 100.91   -7 LegendNANA
15:00 -0.8 -3.5 82 3 32 24.1 100.92   -8 LegendNANA
16:00 -1.0 -3.8 82 3 31 24.1 100.95   -8 Cloudy
17:00 -1.1 -3.8 81 2 32 24.1 100.95   -8 LegendNANA
18:00 -1.2 -4.1 81 3 36 24.1 100.96   -9 LegendNANA
19:00 -1.3 -4.0 82 3 35 19.3 100.93   -9 Snow
20:00 -1.2 -4.5 78 3 32 24.1 100.95   -8 Snow
21:00 -1.5 -4.4 81 3 34 24.1 100.95   -9 Snow
22:00 -1.6 -4.7 80 3 27 24.1 100.94   -8 Snow
23:00 -2.1 -5.7 77 2 34 24.1 100.93   -10 Snow

Notes on Data Quality.

Legend

  • E = Estimated
  • M = Missing
  • NA = Not Available
Date modified: